RH
69 70 73 72 72 72 73 71 73 73 74 75 78 70 73 78 91 86 84 90 77 67 73 72 70 68 70 75 76 76 71 70 73
68 68 69 69 69 70 70 68 68 69 70 71 70 64 61 59 67 70 76 84 78 70 70 73 72 70 66 68 71 75 73 70 73
67 67 66 66 67 66 66 65 65 65 64 64 63 60 50 39 53 60 67 76 79 80 73 71 71 72 70 66 72 75 76 71 76
67 65 66 66 67 65 64 63 61 61 61 60 57 55 49 26 40 52 67 74 76 78 80 82 77 71 72 70 71 78 80 76 74
63 63 63 64 64 64 64 62 58 58 58 57 54 49 44 25 28 50 61 71 72 74 76 78 80 83 77 74 71 76 78 78 74
61 58 58 61 62 64 63 60 58 56 54 55 52 46 32 28 26 44 60 65 68 70 71 74 76 79 82 82 78 75 78 79 80
56 56 60 60 63 61 62 60 58 51 41 42 48 39 36 34 30 41 56 61 65 65 63 65 68 72 77 81 80 80 77 80 81
68 68 66 61 60 55 55 53 46 45 42 44 45 42 40 41 36 44 56 58 60 62 63 61 62 65 67 74 76 80 84 79 86
71 69 72 70 71 64 62 55 53 54 49 46 46 46 44 43 41 46 56 56 57 57 60 62 61 61 63 64 71 72 76 86 82
71 73 74 76 72 73 68 62 60 59 55 52 50 48 47 48 47 50 58 57 58 59 61 62 63 63 62 63 66 70 68 72 83
70 72 72 74 76 76 72 69 70 66 63 57 56 54 52 53 53 50 56 61 62 66 69 71 71 69 70 76 80 82 76 77 75
68 73 73 74 74 72 72 70 71 71 61 65 57 56 58 57 53 52 54 52 61 66 71 71 71 73 78 78 77 78 80 79 83
67 69 73 73 72 72 72 75 70 70 72 74 66 66 60 57 52 51 48 49 50 57 59 62 64 67 70 70 72 73 74 75 76
65 67 72 70 70 74 69 72 76 64 66 57 62 70 67 62 46 54 46 48 53 47 57 58 58 60 62 65 69 68 71 71 74
65 63 68 67 66 69 67 67 73 70 74 54 57 72 66 60 63 61 44 50 55 52 53 56 53 58 60 64 64 64 64 68 69
61 64 63 66 65 70 66 69 70 73 73 66 63 65 67 66 57 62 59 57 53 55 55 55 57 55 61 65 63 63 64 66 67
55 65 64 64 66 70 71 74 73 70 75 73 69 66 60 64 60 65 55 61 58 59 49 53 54 60 64 60 61 63 65 64 64
63 65 67 68 70 73 72 74 71 72 73 74 68 61 70 74 66 64 64 66 58 66 64 54 55 57 65 66 66 58 66 64 64
63 64 66 67 71 71 70 64 72 70 74 72 61 72 76 78 72 65 67 65 56 69 64 65 61 61 66 62 61 57 64 64 66
62 64 63 66 70 70 69 71 72 73 75 74 78 80 78 80 80 79 72 60 64 67 70 66 67 64 64 73 59 58 59 62 64
Wind_Speed
18 18 18 19 19 19 19 18 17 19 19 18 20 18 15 13 8 9 11 8 9 4 5 6 6 5 4 5 6 7 8 7 10
18 17 17 18 17 19 18 17 17 18 18 18 19 16 15 10 11 10 11 11 16 2 4 4 4 5 4 3 2 4 10 8 7
17 18 17 18 18 19 18 17 17 18 18 17 16 17 17 11 10 10 10 18 21 20 8 2 2 4 5 3 1 6 11 8 9
18 17 18 19 19 18 17 18 16 17 18 17 17 18 18 9 8 10 7 17 18 20 19 19 11 3 3 4 2 4 10 9 8
16 18 18 17 18 18 18 19 17 18 19 19 18 17 17 9 8 8 8 16 16 17 18 18 19 19 8 1 4 2 5 8 8
10 15 16 17 18 18 19 19 18 17 17 19 18 16 7 7 6 6 16 16 15 16 16 16 17 18 18 16 3 4 4 7 9
10 14 17 19 18 18 19 19 18 14 7 6 12 6 7 6 6 6 16 15 14 14 14 14 15 15 16 17 17 7 7 7 9
4 4 4 4 13 6 8 8 8 10 7 6 6 7 6 4 4 8 14 14 15 15 15 14 13 14 14 15 16 16 16 9 8
5 4 4 5 4 6 6 5 6 7 7 7 6 6 5 4 3 6 14 14 14 13 13 13 13 12 12 13 14 16 14 19 8
4 4 4 5 4 4 5 5 6 6 6 5 7 6 6 6 4 3 14 14 14 14 13 13 12 13 13 13 13 14 15 15 15
4 4 4 4 4 4 4 4 4 4 4 6 5 5 5 5 5 4 5 16 18 16 17 19 18 17 15 16 18 16 15 16 13
5 4 4 4 4 6 5 5 4 5 5 6 6 5 6 5 5 5 5 6 16 19 20 19 19 18 19 19 19 20 19 18 19
5 4 4 4 4 4 3 4 4 5 4 3 3 3 4 4 6 6 6 6 6 11 18 17 18 18 19 18 18 17 17 17 18
5 4 4 4 4 5 4 4 3 6 6 5 5 4 4 5 6 6 7 8 7 6 13 18 18 18 18 17 17 17 17 17 16
5 4 4 3 4 4 4 5 4 5 5 4 4 3 3 4 4 5 7 6 7 6 7 7 9 18 18 17 17 16 15 15 14
5 3 4 4 4 3 3 2 3 4 5 3 3 2 2 4 4 4 3 5 6 5 6 5 4 6 17 18 18 17 16 15 15
5 4 4 4 3 4 4 3 1 2 4 2 0 3 3 3 3 3 4 5 4 4 7 5 5 5 5 11 17 17 17 16 14
5 5 4 4 3 3 2 3 4 3 4 6 3 2 2 4 2 4 4 4 4 3 4 5 6 5 3 7 10 17 16 16 15
5 5 5 5 3 4 2 3 3 3 3 2 4 3 1 2 5 1 2 5 7 4 4 4 4 5 3 9 12 15 13 16 16
5 5 4 4 3 2 3 3 3 2 2 2 2 1 1 1 2 4 5 6 3 4 5 6 4 4 4 4 7 14 14 16 17
Wind_Direction
59 55 52 54 51 58 54 52 46 44 45 45 45 40 39 33 43 33 19 15 39 146 139 128 118 107 113 117 125 146 128 124 129
62 57 53 54 52 56 52 54 51 48 43 42 47 39 46 40 47 32 19 21 37 53 147 152 150 134 129 162 178 207 151 139 129
62 54 53 52 50 52 51 53 52 49 47 47 49 47 47 43 48 34 20 25 38 41 20 22 202 181 156 174 260 151 155 148 132
57 52 46 47 48 47 50 51 54 52 48 43 44 48 47 42 46 39 21 26 37 40 35 35 25 340 203 171 184 160 170 155 144
62 51 47 48 47 46 47 47 48 49 45 39 39 42 41 31 42 36 22 25 32 35 35 33 29 30 7 294 194 211 199 175 161
43 59 57 51 47 45 44 44 43 47 41 38 35 35 31 28 29 28 20 20 27 29 29 32 30 26 22 22 298 240 219 214 183
60 56 51 48 48 45 41 42 41 39 33 26 31 26 24 26 22 18 22 17 21 21 22 26 31 29 26 21 23 348 248 221 213
51 49 41 27 40 39 35 28 29 28 28 26 28 21 23 20 23 9 22 21 19 20 19 22 25 28 24 18 21 18 10 242 218
50 49 33 40 29 30 28 34 32 26 19 25 26 22 27 11 2 9 23 25 24 23 26 21 24 25 22 22 17 14 16 25 262
66 51 41 35 24 34 26 23 21 17 15 19 27 22 19 5 352 359 26 32 37 35 36 35 30 28 27 23 21 18 12 17 29
73 67 52 43 35 32 34 32 18 9 4 10 17 30 21 16 0 13 9 44 39 40 38 41 38 41 40 39 36 34 25 20 11
75 69 53 42 32 33 30 23 18 18 12 11 5 8 14 13 19 27 32 28 33 40 46 36 36 26 36 35 29 22 28 19 17
69 65 56 42 35 42 48 22 18 8 9 346 25 23 23 24 37 49 47 39 35 22 32 37 33 28 27 23 21 17 22 18 12
83 66 48 42 38 27 21 25 34 11 1 357 25 14 30 32 43 51 44 40 43 25 20 29 24 20 18 19 19 13 15 12 4
104 95 88 71 61 35 25 37 24 1 345 351 24 47 75 33 39 54 42 37 41 27 19 21 8 12 13 12 8 8 7 4 2
106 106 104 93 87 83 53 86 57 4 342 344 359 54 150 41 36 50 55 41 31 22 24 22 7 359 7 4 7 3 359 358 353
108 98 90 83 90 71 66 69 93 40 8 44 279 8 340 19 28 28 18 35 9 12 11 7 359 356 353 358 2 1 357 348 345
101 92 87 80 82 75 76 74 73 69 23 40 66 22 359 324 341 1 359 16 7 353 345 357 344 338 336 352 352 354 354 354 346
86 89 86 82 79 64 31 57 67 70 55 29 42 61 96 13 323 307 356 358 342 322 327 313 309 322 338 345 343 351 348 350 350
84 78 64 59 60 57 56 42 45 73 91 90 93 61 264 257 244 303 324 339 333 307 311 310 305 304 313 309 327 346 346 343 337